Location: Carter Cabin
(41.0271°N, 122.9339°W)
Time: 15:30:52
(UTC+00:00)

Cosmos 1151 Rocket - Pass Details

Date: 13 April 2024
Orbit: 588 x 611 km, 82.5° (Epoch: 22 May)

Event Time Altitude Azimuth Distance (km) Brightness Sun altitude
Exits shadow 12:10:10 28° 254° (WSW) 1,130 3.8 -15.7°
Maximum altitude 12:11:17 33° 284° (WNW) 1,028 3.8 -15.6°
Drops below altitude 10° 12:15:11 10° 348° (NNW) 1,956 5.8 -14.9°
Sets 12:17:36 0° 359° (N) 2,868 6.8 -14.5°
